Winter Haven, FL

11:15 AM EDT on July 25, 2017 (GMT -0400)
Winter Haven's-Gilbert

Weather History for KGIF - March, 2013

Change the Weather History Date:

Friday, March 22, 2013

  Actual Average Record
Temperature  
Mean Temperature 63 °F -  
Max Temperature 79 °F 80 °F 90 °F (1950)
Min Temperature 48 °F 54 °F 37 °F (1960)
Degree Days  
Heating Degree Days 2    
Growing Degree Days 13 (Base 50)    
Moisture  
Dew Point 53 °F    
Average Humidity 74    
Maximum Humidity 96    
Minimum Humidity 33    
Precipitation  
Precipitation 0.37 in - - ()
Sea Level Pressure  
Sea Level Pressure 29.98 in    
Wind  
Wind Speed 5 mph (East)    
Max Wind Speed 16 mph    
Max Gust Speed 21 mph    
Visibility 8 miles    
Events Rain    
Averages and records for this station are not official NWS values.
T = Trace of Precipitation, MM = Missing Value Source: NWS Daily Summary

Daily Weather History Graph

Daily Weather History Graph

Search for Another Location

Airport or City:

Trip Planner

Search our weather history database for the weather conditions in past years. The results will help you decide how hot, cold, wet, or windy it might be!

Date:

Astronomy

Mar. 22, 2013 Rise Set
Actual Time 7:28 AM EDT 7:39 PM EDT
Civil Twilight 7:04 AM EDT 8:03 PM EDT
Nautical Twilight 6:37 AM EDT 8:30 PM EDT
Astronomical Twilight 6:10 AM EDT 8:57 PM EDT
Moon 3:25 PM EDT (3/22) 4:06 AM EDT (3/22)
Length of Visible Light 12h 58m
Length of Day
12h 11m
Waxing Gibbous, 77% of the Moon is Illuminated
Mar 22
Waxing Gibbous
Mar 27
Full
Apr 3
Last Quarter
Apr 10
New
Apr 18
First Quarter

Hourly Weather History & Observations

Time (EDT) Temp. Dew Point Humidity Pressure Visibility Wind Dir Wind Speed Gust Speed Precip Events Conditions
12:53 AM 50.0 °F 39.0 °F 66% 29.97 in 10.0 mi NW 4.6 mph - N/A   Clear
1:53 AM 50.0 °F 41.0 °F 71% 29.96 in 10.0 mi Calm Calm - N/A   Clear
2:53 AM 48.9 °F 39.9 °F 71% 29.95 in 10.0 mi North 3.5 mph - N/A   Clear
3:53 AM 48.9 °F 41.0 °F 74% 29.94 in 10.0 mi NNE 3.5 mph - N/A   Clear
4:53 AM 48.0 °F 42.1 °F 80% 29.95 in 10.0 mi NE 3.5 mph - N/A   Clear
5:53 AM 48.0 °F 41.0 °F 77% 29.96 in 10.0 mi Calm Calm - N/A   Clear
6:53 AM 48.0 °F 41.0 °F 77% 29.99 in 10.0 mi NE 3.5 mph - N/A   Clear
7:53 AM 50.0 °F 44.1 °F 80% 30.01 in 10.0 mi Calm Calm - N/A   Mostly Cloudy
8:53 AM 54.0 °F 42.1 °F 64% 30.03 in 10.0 mi NE 6.9 mph - N/A   Partly Cloudy
9:53 AM 60.1 °F 39.0 °F 46% 30.03 in 10.0 mi ENE 9.2 mph - N/A   Clear
10:53 AM 64.9 °F 39.9 °F 40% 30.04 in 10.0 mi ENE 11.5 mph - N/A   Partly Cloudy
11:53 AM 70.0 °F 39.9 °F 33% 30.02 in 10.0 mi East 10.4 mph - N/A   Clear
12:53 PM 72.0 °F 42.1 °F 34% 30.01 in 10.0 mi Variable 5.8 mph - N/A   Mostly Cloudy
1:53 PM 75.9 °F 48.9 °F 38% 29.98 in 10.0 mi South 9.2 mph - N/A   Partly Cloudy
2:53 PM 78.1 °F 50.0 °F 37% 29.95 in 10.0 mi SSW 16.1 mph 20.7 mph N/A   Partly Cloudy
3:53 PM 75.0 °F 54.0 °F 48% 29.93 in 10.0 mi SW 5.8 mph - N/A   Overcast
4:53 PM 72.0 °F 59.0 °F 64% 29.92 in 8.0 mi WSW 3.5 mph - 0.01 in Rain Light Rain
5:39 PM 68.0 °F 64.0 °F 87% 29.94 in 2.0 mi Calm Calm - 0.04 in Rain Rain
5:45 PM 68.0 °F 64.0 °F 87% 29.94 in 3.0 mi Calm Calm - 0.04 in Rain Light Rain
5:53 PM 68.0 °F 64.9 °F 90% 29.94 in 5.0 mi Calm Calm - 0.05 in Rain Light Rain
6:02 PM 68.0 °F 64.9 °F 90% 29.95 in 1.5 mi Calm Calm - 0.05 in Rain Rain
6:12 PM 66.9 °F 64.0 °F 90% 29.95 in 2.0 mi Calm Calm - 0.08 in Rain Light Rain
6:14 PM 66.9 °F 64.0 °F 90% 29.96 in 3.0 mi Calm Calm - 0.08 in Rain Light Rain
6:53 PM 66.9 °F 64.9 °F 93% 29.95 in 9.0 mi East 6.9 mph - 0.09 in   Overcast
7:53 PM 66.9 °F 64.0 °F 90% 29.96 in 10.0 mi East 5.8 mph - N/A   Overcast
8:51 PM 66.2 °F 64.4 °F 94% 29.97 in 7.0 mi East 8.1 mph - 0.04 in Rain Light Rain
8:53 PM 66.0 °F 64.0 °F 93% 29.98 in 7.0 mi East 10.4 mph - 0.04 in Rain Light Rain
9:00 PM 66.0 °F 64.0 °F 93% 29.98 in 8.0 mi East 11.5 mph - 0.00 in Rain Light Rain
9:53 PM 64.9 °F 63.0 °F 93% 30.01 in 3.0 mi SSE 8.1 mph - 0.06 in Rain Rain
10:19 PM 64.0 °F 63.0 °F 96% 30.00 in 5.0 mi SE 9.2 mph - 0.04 in Rain Light Rain
10:53 PM 64.0 °F 61.0 °F 90% 30.02 in 9.0 mi East 6.9 mph - 0.04 in   Overcast
11:53 PM 63.0 °F 61.0 °F 93% 30.01 in 4.0 mi East 6.9 mph - 0.08 in Rain Heavy Rain